Regional Weather Roundup
Issued by NWS Sioux Falls, SD

Home | Current Version | Previous Version | Graphics & Text | Print | Product List | Glossary On
Versions: 1 2 3 4 5 6 7 8 9 10 11 12 13 14 15 16 17 18 19 20 21 22 23 24 25 26 27 28 29 30 31 32 33 34 35 36 37 38 39 40 41 42 43 44 45 46 47 48 49 50
000
ASUS43 KFSD 250402
RWRFSD

WEATHER ROUNDUP FOR SE SOUTH DAKOTA/SW MINNESOTA/NW IOWA
NATIONAL WEATHER SERVICE SIOUX FALLS SD
1100 PM CDT SUN MAY 24 2015

NOTE: "FAIR" INDICATES FEW OR NO CLOUDS BELOW 12,000 FEET WITH NO
SIGNIFICANT WEATHER AND OR OBSTRUCTIONS TO VISIBILITY.


SDZ038>040-050-052>070-250500-
SOUTHEAST SOUTH DAKOTA

CITY           SKY/WX    TMP DP  RH WIND       PRES   REMARKS
BROOKINGS      CLOUDY    57  55  94 E8        29.79S
CHAMBERLAIN    MOCLDY    58  57  99 E6        29.80F
HURON          CLOUDY    59  57  93 N6        29.81R
MADISON        CLOUDY    57  57 100 NE8       29.79S
MITCHELL       CLOUDY    61  59  93 NE5       29.80R
SIOUX FALLS    CLOUDY    59  58  96 NE8       29.77S
WINNER         FOG       60  58  92 NE3       29.82R VSB 1/2
YANKTON        CLOUDY    61  57  88 CALM      29.77S
$$

MNZ071-072-080-081-089-090-097-098-250500-
SOUTHWEST MINNESOTA

CITY           SKY/WX    TMP DP  RH WIND       PRES   REMARKS
FAIRMONT       CLOUDY    61  55  82 S3        29.75S
JACKSON        FOG       59  59 100 CALM      29.77R VSB 1
LUVERNE        CLOUDY    61  57  88 NE3       29.78R
MARSHALL       CLOUDY    57  54  88 E12       29.78S
MONTEVIDEO     DRIZZLE   57  57 100 E9        29.80F
REDWOOD FALLS  CLOUDY    59  57  93 E6        29.77F
TRACY          CLOUDY    58  58  99 NE7       29.78S FOG
WINDOM         LGT RAIN  59  57  94 CALM      29.77S VSB 3/4
WORTHINGTON    CLOUDY    59  55  88 E7        29.77S
$$

IAZ001>003-012>014-020>022-031-032-NEZ013-014-SDZ071-250500-
NORTHWEST IOWA

CITY           SKY/WX    TMP DP  RH WIND       PRES   REMARKS
DENISON        CLOUDY    61  61 100 SE3       29.76S FOG
ESTHERVILLE    CLOUDY    60  60 100 SW3       29.76R FOG
SIOUX CITY     CLOUDY    62  60  93 CALM      29.78S FOG
SPENCER        CLOUDY    62  61  96 S6        29.76S
$$

ABBREVIATIONS USED IN REMARKS
   TC - TEMPERATURE IN CELSIUS
  WCI - WIND CHILL INDEX
   HX - HEAT INDEX
  VSB - VISIBILITY



USA.gov is the U.S. government's official web portal to all federal, state and local government web resources and services.